Location: *
(52.5167°S, 179.6167°W)
Time: 20:21:33
(UTC+00:00)

Daily predictions for brighter satellites

Satellite Brightness Start Highest point End
(mag) Time Altitude Azimuth Time Altitude Azimuth Time Altitude Azimuth
USA 59 Rocket 4.0 12:36:52 10° SW 12:37:41 12° SW 12:37:41 12° SW
ATLAS 5 CENTAUR R/B 3.3 15:13:49 50° ENE 15:13:49 50° ENE 15:20:13 10° SE
ATLAS 2AS CENTAUR R/B 3.9 15:21:18 34° SSW 15:22:09 35° S 15:28:51 10° ESE
Cosmos 1697 Rocket 4.1 15:29:32 30° NE 15:30:41 32° ENE 15:35:43 10° SE
Cosmos 1656 4.5 15:35:01 46° SE 15:35:01 46° SE 15:38:51 10° SSE
ACS3 Solar Sail 3.7 15:32:05 10° ENE 15:37:19 28° ESE 15:42:38 10° S
NOSS 3-3 (A) 4.4 15:40:15 75° WSW 15:40:30 76° SW 15:47:53 10° SE
Cosmos 2263 Rocket 3.1 15:39:34 38° SSE 15:40:56 45° SE 15:46:17 10° ENE
SL-16 R/B 3.7 15:37:28 10° SSE 15:43:23 39° E 15:49:13 10° NNE
Cosmos 2369 Rocket 4.0 15:46:58 20° S 15:46:58 20° S 15:49:39 10° SSE
Cosmos 2173 Rocket 3.9 15:48:24 83° E 15:48:24 83° E 15:54:38 10° SSE
Cosmos 1125 Rocket 4.4 15:50:51 42° SSE 15:50:51 42° SSE 15:54:19 10° SSE
NOSS 3-3 (C) 4.4 15:53:24 67° WSW 15:54:14 72° SW 16:01:35 10° SE
Cosmos 2227 Rocket 2.7 15:56:46 49° NNE 15:56:46 49° NNE 16:00:49 10° NNE
ADEOS Rocket 4.0 16:00:22 34° SSW 16:00:22 34° SSW 16:04:07 10° SSW
Cosmos 1459 Rocket 3.9 15:59:41 79° NNW 16:00:07 88° W 16:06:35 10° S
RESURS DK-1 4.3 16:07:17 22° SSE 16:08:12 24° SE 16:11:32 10° E
Cosmos 1607 4.1 16:08:16 59° SW 16:08:16 59° SW 16:14:34 10° SE
Cosmos 1802 Rocket 4.0 16:09:40 38° N 16:12:25 89° ENE 16:19:00 10° S
GEOS 3 Rocket 4.3 16:07:50 10° SE 16:12:20 42° SSW 16:12:20 42° SSW
Cosmos 1269 Rocket 4.1 16:15:08 42° SSW 16:16:59 76° ESE 16:22:19 10° NNE
Cosmos 192 4.3 16:19:29 82° NE 16:19:35 83° ENE 16:24:37 10° SSE
CZ-2D R/B 4.5 16:23:14 10° NE 16:26:24 36° ESE 16:27:43 26° SSE
Cosmos 2298 Rocket 3.9 16:26:19 70° NW 16:26:57 83° WSW 16:32:21 10° SSE
Helios 1A Rocket 3.4 16:23:46 10° SSE 16:27:02 51° ESE 16:27:02 51° ESE
Cosmos 1818 3.6 16:27:54 47° SSW 16:29:30 78° SE 16:34:56 10° NE
Cosmos 2100 Rocket 4.0 16:30:37 53° WSW 16:30:43 53° WSW 16:36:50 10° S
IRS-1C 4.5 16:26:23 10° NNE 16:31:42 67° ESE 16:37:05 10° SSW
Cosmos 1980 Rocket 3.3 16:27:30 10° N 16:32:50 44° ENE 16:38:16 10° SE
Cosmos 2061 Rocket 4.1 16:27:41 10° N 16:34:04 78° E 16:40:27 10° SSE
Cosmos 1271 Rocket 3.4 16:34:02 37° SSE 16:35:03 50° ESE 16:38:31 10° NNE
SL-4 R/B 3.5 16:34:29 27° NNE 16:35:17 29° NNE 16:38:57 10° E
SL-12 R/B(2) 4.4 16:29:17 19° SW 16:36:15 72° SE 16:43:56 10° ENE
Cosmos 1470 Rocket 3.4 16:39:52 76° SW 16:39:52 76° SW 16:44:08 10° S
Meteor 2-10 Rocket 3.7 16:40:22 22° NNW 16:44:21 76° WSW 16:50:12 10° S
ARIANE 5 R/B 2.5 16:39:31 10° NNE 16:44:35 79° ESE 16:49:41 10° SSW
DMSP B5D2-2 4.0 16:45:09 10° S 16:50:25 65° WSW 16:52:53 31° NW
Meteor 1-24 Rocket 3.5 16:45:13 10° SSW 16:50:42 84° W 16:56:03 10° N
Cosmos 1933 Rocket 3.8 16:47:23 10° N 16:51:51 73° E 16:56:22 10° SSE
Cosmos 2016 Rocket 4.0 16:47:36 20° NNW 16:52:06 61° WSW 16:58:30 10° S
IRAS Rocket 4.2 16:48:54 10° N 16:54:26 58° WNW 16:59:59 10° SSW
ATLAS 5 CENTAUR R/B 2.8 16:53:49 36° WNW 16:56:53 63° SW 17:03:29 10° SE
Cosmos 2219 3.1 16:55:06 23° SW 16:58:44 68° WNW 17:04:20 10° NNE
Cosmos 2150 Rocket 4.3 16:58:40 40° W 17:00:05 50° WSW 17:05:25 10° SSE
Meteor 1-15 Rocket 4.3 16:55:12 10° N 17:00:57 83° E 17:06:42 10° SSE
Cosmos 407 Rocket 3.7 16:57:35 10° SSW 17:02:58 74° ESE 17:08:19 10° NNE
Cosmos 1869 Rocket 4.1 16:58:33 10° N 17:02:59 63° E 17:07:27 10° SSE
Cosmos 2242 Rocket 4.3 17:00:25 10° S 17:04:50 56° ESE 17:09:12 10° NNE
CZ-2D R/B 4.1 17:01:29 10° NE 17:05:14 51° ESE 17:09:04 10° S
Cosmos 1725 Rocket 4.2 17:02:46 20° NW 17:06:57 48° WSW 17:13:08 10° S
Cosmos 1633 Rocket 4.3 17:11:38 25° SW 17:11:38 25° SW 17:14:15 10° S
Cosmos 1844 Rocket 3.6 17:05:05 10° SSW 17:10:33 47° SE 17:15:57 10° ENE
Cosmos 1140 Rocket 3.5 17:08:18 15° SSW 17:12:37 61° WNW 17:17:46 10° N
Cosmos 2084 4.0 17:12:36 36° WNW 17:13:00 37° NW 17:17:08 10° NNE
SJ 16-02 3.9 17:10:21 10° S 17:13:23 18° SE 17:16:24 10° E
Cosmos 1697 Rocket 2.8 17:11:18 26° WNW 17:14:24 57° SW 17:20:03 10° SSE
ATLAS 2AS CENTAUR R/B 3.6 17:08:43 15° SW 17:14:43 48° SSE 17:21:56 10° E
Intercosmos 24 3.8 17:12:38 10° S 17:16:19 78° ESE 17:20:10 10° NNE
Meteor 2-5 Rocket 3.7 17:11:08 10° SSW 17:16:48 58° W 17:22:18 10° N
Cosmos 1703 Rocket 4.1 17:17:07 32° WSW 17:18:05 36° W 17:22:07 10° NNW
Cosmos 2251 Rocket 3.8 17:13:04 10° SSW 17:18:26 68° ESE 17:23:42 10° NE
AQUARIUS 4.5 17:15:06 10° NNE 17:19:33 69° ESE 17:24:03 10° S
SMAP 3.0 17:14:52 10° NNE 17:19:35 83° WNW 17:24:22 10° SSW
ACS3 Solar Sail 1.8 17:13:53 10° N 17:20:12 74° WNW 17:26:38 10° SSW
Cosmos 1953 2.7 17:17:13 10° N 17:20:54 60° E 17:24:42 10° SSE
IGS 5A 3.4 17:17:02 10° NNE 17:21:06 86° ESE 17:25:14 10° SSW
Cosmos 2263 Rocket 2.5 17:21:18 19° SW 17:24:51 42° WNW 17:30:04 10° N
BREEZE-M DEB (TANK) 2.9 17:23:14 21° WNW 17:26:06 48° N 17:28:37 10° E
USA 276 4.3 17:27:01 12° NNW 17:27:01 12° NNW 17:27:34 10° N
SL-16 R/B 2.7 17:21:01 10° S 17:27:06 50° WSW 17:33:07 10° NW
Cosmos 1328 3.5 17:23:59 10° SSW 17:27:44 71° W 17:31:28 10° N
CZ-4C R/B 3.3 17:20:44 10° NNW 17:29:18 72° NE 17:36:15 10° SE
SJ-6F 4.3 17:25:57 10° N 17:30:03 68° WNW 17:34:11 10° SSW
CORIOLIS 4.1 17:25:27 10° N 17:30:53 68° WNW 17:36:21 10° SSW
Cosmos 2369 Rocket 4.3 17:29:20 10° SSW 17:31:30 12° S 17:33:41 10° SSE
Cosmos 1758 4.1 17:32:04 28° WSW 17:32:06 28° WSW 17:35:30 10° S
USA 290 2.4 17:33:10 12° SSW 17:36:17 80° ESE 17:39:40 10° NNE
Cosmos 2227 Rocket 3.5 17:38:40 19° WNW 17:38:40 19° WNW 17:42:11 10° NW
Cosmos 2082 4.0 17:38:18 10° SW 17:43:40 44° WNW 17:48:58 10° N
Meteor 1-22 Rocket 4.4 17:39:30 10° NW 17:44:34 42° WSW 17:49:45 10° S
SJ-12 4.5 17:41:08 10° NNW 17:44:43 33° W 17:48:21 10° SSW
RESURS DK-1 2.3 17:42:41 14° SW 17:46:01 58° WNW 17:49:59 10° NNE
Cosmos 1461 3.9 17:46:06 20° WNW 17:46:36 21° WNW 17:49:23 10° NNW
Cosmos 1733 Rocket 3.5 17:42:18 10° N 17:46:45 69° E 17:51:14 10° SSE
SL-19 R/B 3.7 17:43:54 10° N 17:46:46 52° WNW 17:49:54 10° SSW
Resurs 01 Rocket 4.2 17:50:26 10° ENE 17:53:36 19° ESE 17:56:48 10° SSE
Meteor 2-12 Rocket 4.4 17:48:10 10° SSW 17:54:23 73° W 18:00:29 10° N
Landsat 7 3.8 17:50:42 10° NNE 17:55:26 89° WNW 18:00:13 10° SSW
CZ-2D R/B 4.3 17:56:28 10° NW 17:59:06 20° W 18:01:08 13° SW
Helios 1A Rocket 4.1 17:57:46 10° SSW 18:00:17 18° WSW 18:01:15 16° W
SL-16 R/B 3.3 17:55:09 10° N 18:00:36 50° ENE 18:06:08 10° SE
SJ-7 4.3 17:57:19 10° N 18:01:14 65° WNW 18:05:12 10° SSW
Cosmos 2034 Rocket 4.2 17:56:36 10° N 18:02:49 79° E 18:09:10 10° SSE
BREEZE-M DEB (TANK) 4.1 17:46:33 10° WNW 18:03:16 64° N 18:07:02 10° E
Cosmos 2278 Rocket 4.3 17:59:08 10° SSW 18:03:17 20° SSE 18:07:24 10° ESE
USA 305 3.3 18:04:33 10° NW 18:08:29 56° NNE 18:12:20 10° ESE
Cosmos 1271 Rocket 4.2 18:08:04 13° WSW 18:09:24 15° W 18:11:34 10° NW
SL-4 R/B 2.3 18:08:49 10° WNW 18:13:02 68° NNE 18:17:08 10° E
Cosmos 2369 3.8 18:08:02 10° NW 18:13:41 62° SW 18:19:23 10° SSE
Cosmos 1844 3.8 18:08:13 10° SSW 18:14:06 80° WNW 18:19:55 10° NNE
Cosmos 1190 Rocket 4.1 18:10:14 10° SSW 18:15:25 61° WNW 18:20:34 10° N
USA 81 4.1 18:10:54 10° SSW 18:16:10 58° W 18:21:22 10° NNW
Cosmos 2278 4.3 18:10:48 10° NNW 18:16:26 65° ENE 18:22:09 10° SE
Cosmos 1980 Rocket 2.6 18:11:28 10° WNW 18:16:53 44° SW 18:22:24 10° SSE
PSLV R/B 3.8 18:13:09 10° N 18:17:15 46° W 18:21:24 10° SSW
SL-24 R/B 4.1 18:14:14 10° N 18:17:49 44° W 18:21:43 10° SSW
Cosmos 2333 Rocket 3.8 18:13:41 10° N 18:18:58 41° ENE 18:24:17 10° SE
Nadezhda 4 Rocket 4.3 18:15:41 10° SSW 18:21:49 49° W 18:27:52 10° NNW
Cosmos 1943 Rocket 4.2 18:18:27 10° SSW 18:22:48 22° SSE 18:27:08 10° E
Cosmos 2322 Rocket 3.5 18:18:10 10° N 18:23:30 46° ENE 18:28:53 10° SE
ARIANE 5 R/B 3.8 18:20:48 10° NW 18:24:15 18° W 18:27:43 10° SW
Cosmos 1420 Rocket 4.1 18:22:14 10° NNW 18:27:32 90° ENE 18:32:51 10° SSE
Cosmos 1464 Rocket 4.2 18:22:53 10° NNW 18:29:05 53° WSW 18:35:20 10° S
SPOT 1/Viking Rocket 3.7 18:26:37 10° NNE 18:31:49 86° ESE 18:37:05 10° SSW
Cosmos 371 Rocket 4.5 18:28:36 10° SSW 18:33:17 43° ESE 18:37:53 10° NE
Aureole 3 Rocket 3.2 18:31:01 10° NW 18:33:44 27° WSW 18:36:34 10° S
Cosmos 1954 Rocket 4.2 18:29:48 10° SSW 18:34:56 54° WNW 18:40:03 10° N
Cosmos 1378 Rocket 4.1 18:32:15 10° SSW 18:36:20 38° W 18:40:20 10° NNW
